Regional Weather Roundup
Issued by NWS Pendleton, OR

Home | Current Version | Previous Version | Text Only | Print | Product List | Glossary On
Versions: 1 2 3 4 5 6 7 8 9 10 11 12 13 14 15 16 17 18 19 20 21 22 23 24 25 26 27 28 29 30 31 32 33 34 35 36 37 38 39 40 41 42 43 44 45 46 47 48 49 50
000
ASUS46 KPDT 300325
RWRPDT
PENDLETON REGIONAL WEATHER ROUNDUP
NATIONAL WEATHER SERVICE PENDLETON OREGON
800 PM PDT WED JUL 29 2015

NOTE: FAIR INDICATES FEW OR NO CLOUDS BELOW 12,000 FEET WITH NO
SIGNIFICANT WEATHER AND/OR OBSTRUCTIONS TO VISIBILITY.

# INDICATES UNOFFICIAL STATION AND DATA

WAZ520-300410-
EAST SLOPES OF WASHINGTON CASCADES

CITY            SKY/WX      TMP DP  RH  WIND    PRES   REMARKS
#BULLFROG 2SW   N/A         77  38  24  W5      27.73R
#BUMPING DAM    N/A         72  N/A N/A CALM    N/A
#CLE ELUM HS    N/A         83  35  18  SW3     30.05R
#CLE ELUM LAKE  N/A         78  40  26  CALM    30.00R
#CLIFFDEL 2NW   N/A         80  40  24  W7      N/A
#GLENWOOD       N/A         84  62  48  CALM    29.98S
#MANASTASH CYN  N/A         76  40  27  CALM    30.11R
#NELSON         N/A         81  40  23  CALM    30.03R
#NELSON 3SW     N/A         71  42  35  CALM    30.22R
#RONALD 2NW     N/A         80  39  23  E1      30.03R
#SNOWDEN        N/A         78  17  10  CALM    N/A
#TEANAWAY 4NE   N/A         82  44  26  NW3     N/A
#TROUT LAKE 1NE N/A         83  49  31  CALM    29.98R
$$

WAZ521-300410-
SIMCOE HIGHLANDS

CITY            SKY/WX      TMP DP  RH  WIND    PRES   REMARKS
#BICKLETON HS   N/A         79  22  12  S3      N/A
#CENTERVILLE 4W N/A         91  37  15  CALM    29.82S HX 87
#GOLDENDALE     N/A         91  29  11  S5      N/A    HX 87
#GOLDENDALE 1NE N/A         87  26  11  SE3     N/A
#GOLDENDALE 5WNWN/A         86  42  21  CALM    29.96S
#GOODNOE HILLS  N/A         86  39  19  E5      N/A
#LYLE 6NE       N/A         90  36  15  CALM    29.94S HX 86
$$

WAZ026-300410-
KITTITAS VALLEY

CITY            SKY/WX      TMP DP  RH  WIND    PRES   REMARKS
ELLENSBURG AP   CLEAR       87  36  16  NW12    30.07S
YTC-OPS AREA    N/A         79  33  19  E9      30.14R
#ELLENSBURG CWU N/A         86  41  21  N8      29.94S
#ELLENSBURG 3NE N/A         83  40  22  N5      30.06S
#KITTITAS 3S    N/A         79  55  44  CALM    29.97R
#THORP 6N       N/A         81  36  20  W16G26  30.02S
$$

WAZ027-300410-
YAKIMA VALLEY

CITY            SKY/WX      TMP DP  RH  WIND    PRES   REMARKS
SUNNYSIDE AP    CLEAR       77  61  58  CALM    30.01S
YAKIMA AIRPORT  CLEAR       89  42  19  S5      30.04R
#DONALD 2NE     N/A         84  17   8  N1      28.88S
#GRANDVIEW      N/A         82  47  29  CALM    30.00R
#MABTON         N/A         85  52  32  E1      30.00S
#MOXEE 2E       N/A         82  30  15  N3      29.93R
#NACHES 2SW     N/A         87  62  43  CALM    30.09S
#OUTLOOK DOT    N/A         N/A N/A N/A E5      N/A
#SELAH 8E       N/A         86  31  14  S5      N/A
#TERRACE HTS    N/A         85  42  22  CALM    29.95S
#TOPPENISH      N/A         87  46  24  E1      29.89S
#WAPATO 4NE     N/A         84  17   8  N1      28.88S
#WHITE SWAN 5E  N/A         83  52  34  N2      29.98R
#WILEY CITY 3W  N/A         82  39  22  CALM    30.03R
$$

WAZ028-300410-
LOWER COLUMBIA BASIN...WASHINGTON

CITY            SKY/WX      TMP DP  RH  WIND    PRES   REMARKS
PASCO           CLEAR       89  40  18  NE3     30.00F
RICHLAND AWOS   CLEAR       91  43  19  CALM    30.00F HX 87
#BASIN CITY 5SW N/A         78  58  50  N1      30.01F
#BENTON CITY    N/A         87  50  28  CALM    29.89S
#CONNELL 5N     N/A         88  42  20  CALM    29.99F
#CONNELL 5NW    N/A         88  44  22  CALM    29.96S
#ELTOPIA 6NW    N/A         87  57  36  CALM    29.00F
#KAHLOTUS       N/A         88  38  17  N7      29.99S
#KENNEWICK      N/A         77  38  24  W5      27.73R
#KENNEWICK 3S   N/A         87  45  23  CALM    29.99S
#PATERSON       N/A         90  45  21  CALM    29.96S HX 86
#PROSSER        N/A         89  41  19  CALM    29.97S
#SAGEMOOR 2W    N/A         90  52  27  CALM    29.84F HX 87
#TOUCHET 2S     N/A         82  50  33  W1      29.96S
#WEST PASCO     N/A         91  47  22  N1      29.98S HX 88
$$

WAZ029-300410-
FOOTHILLS OF THE BLUES...WASHINGTON

CITY            SKY/WX      TMP DP  RH  WIND    PRES   REMARKS
WALLA WALLA AP  CLEAR       89  38  17  SW5     30.04S
#DAYTON SCHOOL  N/A         86  36  17  CALM    30.06S
#LOWDEN 2SE     N/A         85  51  31  CALM    29.97S
#PLEASANT VIEW 1N/A         86  35  16  W1      30.03S
#PRESCOTT       N/A         83  47  28  CALM    29.96S
#SUDBURY        N/A         87  N/A N/A CALM    N/A
#WHITMAN COLLEGEN/A         90  42  19  S5      30.03S HX 86
#WAITSBURG 8N   N/A         76  22  13  N2      29.88S
#WALLA WALLA U  N/A         90  46  22  CALM    29.97S HX 87
#WHITMAN MISSIONN/A         91  47  22  CALM    29.99S HX 88
$$

WAZ030-300410-
BLUE MOUNTAINS...WASHINGTON

CITY            SKY/WX      TMP DP  RH  WIND    PRES   REMARKS
$$

ORZ009-041-WAZ024-300410-
COLUMBIA RIVER GORGE

CITY            SKY/WX      TMP DP  RH  WIND    PRES   REMARKS
HOOD RIVER AP   CLEAR       86  50  29  W3      29.99S
THE DALLES AP   CLEAR       93  32  12  E5      29.96S HX 89
#ARLINGTON AIRPON/A         86  35  16  E3      32.29
#MOSIER 1S      N/A         89  26  10  CALM    30.02S
#MURDOCK        N/A         95  31  10  NE3     29.95S HX 90

$$

ORZ510-300410-
NORTH CENTRAL OREGON

CITY            SKY/WX      TMP DP  RH  WIND    PRES   REMARKS
#CHENOWITH 1W   N/A         90  30  12  SE5     N/A    HX 86
#DUFUR 9E       N/A         85  34  16  E7      30.01F
#GRASS VALLEY 1SN/A         83  38  20  NE6     29.99F
#MAUPIN SCHOOL  N/A         93  37  14  NE1     30.02R HX 89
#MORO SCHOOL    N/A         86  45  24  CALM    30.08S
#SHANIKO 4NW    N/A         82  28  14  N9      30.18S
#TYGH VALLEY 2NEN/A         91  35  14  N6      29.96S HX 87
#WAPANITIA AIRPON/A         87  35  16  N1      29.98S
#WASCO AIRPORT  N/A         87  N/A N/A E2      N/A
#WASCO 5NE      N/A         86  39  19  CALM    29.98S
$$

ORZ511-300410-
CENTRAL OREGON

CITY            SKY/WX      TMP DP  RH  WIND    PRES   REMARKS
BEND AIRPORT    CLEAR       82  30  15  N8      30.15R
MADRAS AIRPORT  CLEAR       86  30  13  N7      30.11S
PRINEVILLE AP   CLEAR       82  27  13  N9      30.13R
REDMOND AIRPORT CLEAR       84  34  17  N9      30.12S
#BEND 1SW       N/A         77  37  24  CALM    N/A
#BEND-AWBREY    N/A         83  36  19  CALM    29.98S
#BEND-KIM LN    N/A         82  38  21  CALM    30.13S
#CROOKED RVR RANN/A         85  34  16  E2      29.95S
#CULVER         N/A         85  38  19  CALM    30.06S
#LAKE BILLY CHINN/A         87   8   5  N6      30.13R
#POWELL BUTTE   N/A         79  36  21  CALM    29.77R
#PRINEVILLE 3N  N/A         76  41  28  N3      29.94R
#WARM SPRINGS   N/A         92  38  15  N7      30.00S HX 88

$$


ORZ509-300410-
EAST SLOPES OF OREGON CASCADES

CITY            SKY/WX      TMP DP  RH  WIND    PRES   REMARKS
#CAMP SHERMAN   N/A         81  31  16  CALM    30.06R
#LA PINE 4NW    N/A         79  41  26  CALM    30.02S
#SISTERS AIRPOR N/A         84  42  23  N3      30.17S
#SISTERS 1NW    N/A         85  29  13  N2      N/A
#SISTERS 3N     N/A         77  30  18  CALM    30.25S
#SUNRIVER       N/A         79  38  23  CALM    29.89R
#TUMALO 3W      N/A         83  34  17  N3      29.86R
#WANOGA BUTTE D N/A         72  26  18  E8      N/A

$$

ORZ044-300410-
LOWER COLUMBIA BASIN...OREGON

CITY            SKY/WX      TMP DP  RH  WIND    PRES   REMARKS
HERMISTON       CLEAR       89  42  19  E3      30.01S
#BOARDMAN SCHOOLN/A         93  47  21  CALM    29.99S HX 89
#BOARDMAN 8SW   N/A         87  40  19  N3      29.97F
#ECHO 8SW       N/A         89  45  22  CALM    30.02S
#IONE SCHOOL    N/A         88  39  18  CALM    30.00S
#IRRIGON 4NW    N/A         94  51  23  N1      N/A    HX 91
#UMATILLA       N/A         89  44  21  CALM    29.91S
$$

ORZ507-300410-
NORTHERN FOOTHILLS OF THE BLUES

CITY            SKY/WX      TMP DP  RH  WIND    PRES   REMARKS
PENDLETON AIRPT CLEAR       85  30  14  N8      30.06S
#ADAMS 3WNW     N/A         80  34  19  N1      29.99F
#ATHENA         N/A         84  37  19  CALM    30.03S
#CAYUSE         N/A         85  38  19  NE3     29.98S
#HELIX SCHOOL   N/A         85  37  18  CALM    30.01S
#HELIX 3N       N/A         83  32  16  N3      30.05S
#HOLDMAN 5SE    N/A         86  33  15  CALM    30.06R
#HOLDMAN 6E     N/A         85  35  17  CALM    29.82S
#M-F GROVE ELEM N/A         89  44  21  CALM    30.03S
#M-FREEWATER 5SEN/A         85  55  36  CALM    30.05S
#PENDLETON DNTN N/A         86  40  20  CALM    29.99S
#PDT AQUATIC CTRN/A         85  37  18  N3      30.03S
#PDT SUNRIDGE   N/A         88  38  17  CALM    30.05R
#PENDLETON 7NW  N/A         88  47  24  CALM    N/A
#PILOT ROCK     N/A         83  39  21  CALM    30.09S
#TUTUILLA       N/A         81  42  25  CALM    30.02R
#UMAPINE 2E     N/A         80  57  45  CALM    29.99S
#WESTON SCHOOL  N/A         83  34  17  CALM    29.95S

$$

ORZ508-300410-
SOUTHERN FOOTHILLS OF THE BLUES

CITY            SKY/WX      TMP DP  RH  WIND    PRES   REMARKS
#CONDON SCHOOL  N/A         82  36  19  N5      30.09S
#CONDON 5W      N/A         79  32  18  NE2     30.14S
#FOSSIL SCHOOL  N/A         84  36  18  NE10    30.06S
#HEPPNER EOC    N/A         85  37  18  N5      29.93S
#HEPPNER 4NE    N/A         79  36  21  CALM    30.01S
#LEXINGTON 2SE  N/A         89  37  16  CALM    30.03F
#OLEX 4N        N/A         87  34  15  E1      30.01S
#RUGGS 5NE      N/A         81  -15  2  N7      30.33S
#RUGGS 2SW      N/A         82  36  19  N2      30.01S

$$

ORZ502-503-300410-
BLUE MOUNTAINS

CITY            SKY/WX      TMP DP  RH  WIND    PRES   REMARKS
MEACHAM         CLEAR       72  36  27  CALM    30.21S
#HEPPNER 15SE   N/A         79  39  24  CALM    30.14S
#LONG CREEK HS  N/A         79  36  21  CALM    30.13F
#PIKES PEAK     N/A         78  38  24  N1      27.99S
#TOLLGATE       N/A         65  39  38  CALM    30.12S
#TROY SCHOOL    N/A         88  41  19  N1      29.83R
#UKIAH          N/A         77  38  24  W1      30.08S
#WESTON 4E      N/A         78  38  24  CALM    29.97S
$$

ORZ505-300410-
JOHN DAY BASIN

CITY            SKY/WX      TMP DP  RH  WIND    PRES   REMARKS
JOHN DAY        CLEAR       80  32  17  N5      30.17S
#JOHN DAY KJDY  N/A         84  42  23  NW1     30.17R
#DAYVILLE SCHOOLN/A         86  25  11  CALM    30.06R
#MITCHELL       N/A         85  44  24  CALM    30.27R
#MONUMENT HS    N/A         86  36  17  N6      30.06R
#MT. VERNON 5SE N/A         79  30  17  CALM    30.14S
#WINLOCK        N/A         76  37  24  CALM    30.21R
$$

ORZ506-300410-
OCHOCO AND JOHN DAY HIGHLANDS

CITY            SKY/WX      TMP DP  RH  WIND    PRES   REMARKS
#HORSE RIDGE DO N/A         83  23  11  NW14    N/A
#PAULINA SCHOOL N/A         88  27  11  CALM    30.11S
#PINE MTN OBS   N/A         72  27  19  NW6     N/A
#PRAIRIE CITY   N/A         76  43  31  CALM    29.97R
#SENECA         N/A         78  N/A N/A CALM    N/A
#SENECA 9NW     N/A         74  33  22  CALM    30.04S
$$

ORZ049-300410-
GRANDE RONDE VALLEY

CITY            SKY/WX      TMP DP  RH  WIND    PRES   REMARKS
LA GRANDE       CLEAR       79  37  22  N5      30.13R
#COVE           N/A         76  51  42  CALM    30.14S
#COVE SCHOOL    N/A         78  49  36  CALM    30.15R
#COVE 6NW       N/A         83  48  30  CALM    30.05S
#ELGIN 3N       N/A         81  35  19  NW1     30.10R
#ELGIN 1E       N/A         83  44  25  CALM    N/A
#ISLAND CITY 4N N/A         90  48  24  CALM    29.98S HX 87
#LA GRANDE ELEM N/A         76  43  31  CALM    30.13S
#UNION 1S       N/A         81  49  33  CALM    29.92S
$$

ORZ050-300410-
WALLOWA COUNTY

CITY            SKY/WX      TMP DP  RH  WIND    PRES   REMARKS
JOSEPH AIRPORT  CLEAR       72  37  28  SW3     30.23R
#IMNAHA SCHOOL  N/A         84  36  18  CALM    30.05R
#IMNAHA 10S     N/A         76  41  28  SW1     30.11R
#JOSEPH 3N      N/A         72  40  31  S1      30.21R
#JOSEPH 3W      N/A         68  35  29  W2      30.08R
#LOSTINE        N/A         72  39  30  S1      29.84R
#MT HOWARD 8000 N/A         61  32  33  CALM    30.49S
#PROMISE 1S     N/A         79  41  26  SW2     30.10F
#WALLOWA SCHOOL N/A         83  38  20  CALM    30.09S



$$



USA.gov is the U.S. government's official web portal to all federal, state and local government web resources and services.